Tracking 28888 objects as of 22-May-2024
HD Live streaming from Space Station
objects crossing your sky now

THOR ABLESTAR DEB *

Track THOR ABLESTAR DEB * now!
10-day predictions


NORAD ID: 19961
Int'l Code: 1961-015MJ
Perigee: 859.8 km
Apogee: 1,097.5 km
Inclination: 65.6 °
Period: 104.5 minutes
Semi major axis: 7349 km
RCS: 0.0125 m2 (small)
Launch date: June 29, 1961
Source: United States (US)
Launch site: AIR FORCE EASTERN TEST RANGE (AFETR)

Note: This is SATELLITE DEBRIS
Your satellite tracking list
Your tracking list is empty




NASA's NSSDC Master Catalog

Two Line Element Set (TLE):
1 19961U 61015MJ  24138.49834286  .00000561  00000-0  58280-3 0  9999
2 19961  65.6424 311.8301 0161742 347.1312  45.4743 13.77846350835685
Source of the keplerian elements: AFSPC